Dania, FL

3:39 PM EDT on September 26, 2016 (GMT -0400)
Fort Lauderdale-Hollywood International

Weather History for KFLL - June, 2012

Change the Weather History Date:

Monday, June 11, 2012

  Actual Average Record
Temperature  
Mean Temperature 84 °F 83 °F  
Max Temperature 87 °F 89 °F 96 °F (1990)
Min Temperature 80 °F 77 °F 66 °F (1918)
Degree Days  
Heating Degree Days 0 0  
Month to date heating degree days 0 0  
Since 1 June heating degree days 0 0  
Since 1 July heating degree days 65 112  
Cooling Degree Days 19 18  
Month to date cooling degree days 204 195  
Year to date cooling degree days 1709 1613  
Since 1 June cooling degree days 204 195  
Growing Degree Days 33 (Base 50)    
Moisture  
Dew Point 70 °F    
Average Humidity 67    
Maximum Humidity 79    
Minimum Humidity 55    
Precipitation  
Precipitation 0.00 in 0.32 in 3.10 in (1947)
Month to date precipitation 2.76 3.62  
Year to date precipitation 18.99 21.11  
Snow  
Snow 0.00 in - - ()
Month to date snowfall 0.0  
Since 1 June snowfall 0.0  
Since 1 July snowfall 0.0  
Snow Depth 0.00 in    
Sea Level Pressure  
Sea Level Pressure 30.08 in    
Wind  
Wind Speed 10 mph (East)    
Max Wind Speed 17 mph    
Max Gust Speed 22 mph    
Visibility 10 miles    
Events      
T = Trace of Precipitation, MM = Missing Value Source: NWS Daily Summary

Daily Weather History Graph

Daily Weather History Graph

Search for Another Location

Airport or City:

Trip Planner

Search our weather history database for the weather conditions in past years. The results will help you decide how hot, cold, wet, or windy it might be!

Date:

Astronomy

Jun. 11, 2012 Rise Set
Actual Time 6:27 AM EDT 8:12 PM EDT
Civil Twilight 6:01 AM EDT 8:38 PM EDT
Nautical Twilight 5:30 AM EDT 9:10 PM EDT
Astronomical Twilight 4:57 AM EDT 9:43 PM EDT
Moon 1:09 AM EDT (6/11) 1:35 PM EDT (6/11)
Length of Visible Light 14h 37m
Length of Day
13h 44m
Waning Gibbous, 48% of the Moon is Illuminated
Jun 11
Waning Gibbous
Jun 19
New
Jun 26
First Quarter
Jul 3
Full
Jul 10
Last Quarter

Hourly Weather History & Observations

Time (EDT) Temp. Heat Index Dew Point Humidity Pressure Visibility Wind Dir Wind Speed Gust Speed Precip Events Conditions
12:53 AM 82.0 °F 87.4 °F 73.0 °F 74% 30.10 in 10.0 mi East 8.1 mph - N/A   Partly Cloudy
1:53 AM 82.0 °F 87.4 °F 73.0 °F 74% 30.09 in 10.0 mi East 6.9 mph - N/A   Partly Cloudy
2:53 AM 81.0 °F 85.2 °F 72.0 °F 74% 30.07 in 10.0 mi East 6.9 mph - N/A   Partly Cloudy
3:53 AM 80.1 °F 83.8 °F 72.0 °F 76% 30.04 in 10.0 mi ESE 6.9 mph - N/A   Partly Cloudy
4:53 AM 80.1 °F 84.2 °F 73.0 °F 79% 30.05 in 10.0 mi ESE 4.6 mph - N/A   Partly Cloudy
5:53 AM 81.0 °F 85.8 °F 73.0 °F 77% 30.07 in 10.0 mi ENE 6.9 mph - N/A   Scattered Clouds
6:53 AM 81.0 °F 85.8 °F 73.0 °F 77% 30.07 in 10.0 mi ESE 10.4 mph - N/A   Scattered Clouds
7:53 AM 82.0 °F 86.7 °F 72.0 °F 71% 30.08 in 10.0 mi East 9.2 mph - N/A   Partly Cloudy
8:53 AM 82.9 °F 88.0 °F 72.0 °F 69% 30.10 in 10.0 mi East 12.7 mph - N/A   Scattered Clouds
9:53 AM 84.0 °F 88.4 °F 70.0 °F 63% 30.10 in 10.0 mi East 16.1 mph - N/A   Partly Cloudy
10:53 AM 84.0 °F 87.8 °F 69.1 °F 61% 30.11 in 10.0 mi East 10.4 mph - N/A   Partly Cloudy
11:53 AM 84.9 °F 88.2 °F 68.0 °F 57% 30.10 in 10.0 mi East 11.5 mph - N/A   Partly Cloudy
12:53 PM 84.9 °F 88.2 °F 68.0 °F 57% 30.10 in 10.0 mi ENE 11.5 mph 19.6 mph N/A   Partly Cloudy
1:53 PM 86.0 °F 89.4 °F 68.0 °F 55% 30.10 in 10.0 mi East 13.8 mph 20.7 mph N/A   Partly Cloudy
2:53 PM 84.9 °F 88.2 °F 68.0 °F 57% 30.09 in 10.0 mi East 13.8 mph - N/A   Partly Cloudy
3:53 PM 84.9 °F 87.6 °F 66.9 °F 55% 30.09 in 10.0 mi ESE 13.8 mph - N/A   Partly Cloudy
4:53 PM 86.0 °F 89.4 °F 68.0 °F 55% 30.07 in 10.0 mi East 11.5 mph - N/A   Partly Cloudy
5:53 PM 84.0 °F 87.0 °F 68.0 °F 58% 30.07 in 10.0 mi East 11.5 mph - N/A   Scattered Clouds
6:53 PM 82.0 °F 84.5 °F 66.9 °F 60% 30.07 in 10.0 mi East 12.7 mph - N/A   Scattered Clouds
7:53 PM 82.0 °F 84.5 °F 66.9 °F 60% 30.08 in 10.0 mi East 10.4 mph - N/A   Scattered Clouds
8:53 PM 81.0 °F 83.8 °F 68.0 °F 65% 30.08 in 10.0 mi East 9.2 mph - N/A   Scattered Clouds
9:53 PM 81.0 °F 83.8 °F 68.0 °F 65% 30.08 in 10.0 mi East 6.9 mph - N/A   Scattered Clouds
10:53 PM 81.0 °F 83.3 °F 66.9 °F 62% 30.09 in 10.0 mi East 9.2 mph - N/A   Partly Cloudy
11:53 PM 81.0 °F 83.8 °F 68.0 °F 65% 30.09 in 10.0 mi East 9.2 mph - N/A   Mostly Cloudy